TimeMST,TemperatureF,Dew PointF,Humidity,Sea Level PressureIn,VisibilityMPH,Wind Direction,Wind SpeedMPH,Gust SpeedMPH,PrecipitationIn,Events,Conditions,WindDirDegrees,DateUTC
12:53 AM,16.0,12.0,84,30.36,10.0,WNW,9.2,-,N/A,,Partly Cloudy,290,2013-02-15 07:53:00
1:53 AM,18.0,12.9,81,30.35,10.0,WNW,13.8,-,N/A,,Overcast,300,2013-02-15 08:53:00
2:53 AM,14.0,9.0,80,30.38,10.0,NW,10.4,-,N/A,,Clear,310,2013-02-15 09:53:00
3:53 AM,10.0,6.1,84,30.39,10.0,WNW,5.8,-,N/A,,Partly Cloudy,300,2013-02-15 10:53:00
4:53 AM,16.0,10.9,81,30.39,10.0,WNW,10.4,-,N/A,,Overcast,300,2013-02-15 11:53:00
5:53 AM,10.0,6.1,84,30.40,10.0,WNW,6.9,-,N/A,,Clear,300,2013-02-15 12:53:00
6:53 AM,6.1,3.0,87,30.42,10.0,WNW,8.1,-,N/A,,Clear,300,2013-02-15 13:53:00
7:53 AM,15.1,10.0,80,30.43,10.0,NW,11.5,-,N/A,,Scattered Clouds,320,2013-02-15 14:53:00
8:53 AM,19.0,12.9,77,30.44,10.0,NNW,17.3,21.9,N/A,,Clear,330,2013-02-15 15:53:00
9:53 AM,21.9,12.9,68,30.45,10.0,NNW,15.0,-,N/A,,Clear,330,2013-02-15 16:53:00
10:53 AM,25.0,14.0,63,30.44,10.0,NW,13.8,-,N/A,,Clear,320,2013-02-15 17:53:00
11:53 AM,27.0,15.1,61,30.43,10.0,NW,11.5,-,N/A,,Clear,320,2013-02-15 18:53:00
12:53 PM,28.9,12.9,51,30.40,10.0,NW,12.7,-,N/A,,Clear,310,2013-02-15 19:53:00
1:53 PM,30.0,12.9,49,30.37,10.0,NW,10.4,-,N/A,,Clear,310,2013-02-15 20:53:00
2:53 PM,30.9,12.9,47,30.36,10.0,WNW,8.1,-,N/A,,Partly Cloudy,290,2013-02-15 21:53:00
3:53 PM,30.9,12.9,47,30.36,10.0,NW,9.2,-,N/A,,Clear,310,2013-02-15 22:53:00
4:53 PM,28.9,12.9,51,30.32,10.0,NW,4.6,-,N/A,,Clear,310,2013-02-15 23:53:00
5:53 PM,27.0,14.0,58,30.32,10.0,Calm,Calm,-,N/A,,Clear,0,2013-02-16 00:53:00
6:53 PM,23.0,12.9,65,30.30,10.0,Calm,Calm,-,N/A,,Clear,0,2013-02-16 01:53:00
7:53 PM,24.1,14.0,65,30.25,10.0,SSE,4.6,-,N/A,,Overcast,150,2013-02-16 02:53:00
8:53 PM,26.1,15.1,63,30.21,10.0,SW,6.9,-,N/A,,Overcast,220,2013-02-16 03:53:00
9:53 PM,28.9,19.0,67,30.16,10.0,SW,9.2,-,N/A,,Overcast,230,2013-02-16 04:53:00
10:53 PM,28.9,21.0,72,30.13,7.0,SW,9.2,-,0.00,Snow,Light Snow,220,2013-02-16 05:53:00
11:53 PM,28.9,21.9,75,30.07,9.0,South,8.1,-,0.00,,Overcast,190,2013-02-16 06:53:00